Regional Weather Roundup
Issued by NWS

Home | Current Version | Previous Version | Text Only | Print | Product List | Glossary On
Versions: 1 2 3 4 5 6 7 8 9 10 11 12 13 14 15 16 17 18 19 20 21 22 23 24 25 26 27 28 29 30 31 32 33 34 35 36 37 38 39 40 41 42 43 44 45 46 47 48 49 50
000
ASUS43 KLOT 280821
RWRIL

ILLINOIS REGIONAL WEATHER ROUNDUP
NATIONAL WEATHER SERVICE CHICAGO/ROMEOVILLE IL
300 AM CDT TUE APR 28 2015

NOTE: "FAIR" INDICATES FEW OR NO CLOUDS BELOW 12,000 FEET WITH NO
SIGNIFICANT WEATHER AND/OR OBSTRUCTIONS TO VISIBILITY.

* THESE STATIONS ARE NOT UNDER NWS QUALITY CONTROL. THEY ALSO MAY NOT
  REPORT WEATHER SUCH AS PRECIPITATION OR FOG.

ILZ001-002-007-009-015-016-024-280900-
NORTHWEST ILLINOIS

CITY           SKY/WX    TMP DP  RH WIND       PRES   REMARKS
MOLINE         CLEAR     39  34  82 CALM      30.12S
STERLING*      CLEAR     39  34  81 E3        30.15R
SAVANNA*       CLEAR     42  36  81 E3        30.13S
$$

ILZ003-004-008-010-011-017-018-280900-
NORTH CENTRAL ILLINOIS

CITY           SKY/WX    TMP DP  RH WIND       PRES   REMARKS
ROCKFORD       CLEAR     40  33  76 CALM      30.16F
FREEPORT*      CLEAR     33  31  92 CALM      30.16S
ROCHELLE*      CLEAR     36  34  90 CALM      30.15R
DE KALB*       CLEAR     34  31  90 W5        30.14S WCI  30
PERU*          CLEAR     40  36  87 N6        30.15R
$$

ILZ005-006-012>014-019>023-280900-
NORTHEAST ILLINOIS

CITY           SKY/WX    TMP DP  RH WIND       PRES   REMARKS
CHICAGO-OHARE  CLEAR     37  33  85 CALM      30.13S
CHICAGO-MIDWAY CLEAR     41  34  76 NW5       30.14R
AURORA         FAIR      33  29  85 CALM      30.14S
LANSING*       CLEAR     36  32  87 CALM      30.14S
JOLIET*        CLEAR     38  36  89 CALM      30.14S
WAUKEGAN       CLEAR     34  31  88 CALM      30.13R
DUPAGE AIRPORT CLEAR     37  33  85 CALM      30.13R
KANKAKEE*      CLEAR     38  35  89 NW3       30.14S
WHEELING       CLEAR     37  31  78 CALM      30.16R
MORRIS*        FAIR      37  33  83 CALM      30.10F
ROMEOVILLE*    CLEAR     38  33  82 N3        30.14S
NORTHERLY ISL    N/A     42  33  70 N3          N/A
$$

LMZ740>746-280900-
SOUTHERN LAKE MICHIGAN

STATION/POSITION SKY/WX   TEMP    WIND        PRES    VSBY  WAVE
                          AIR SEA DIR/SP/G                  HT/PER
                          (F)     (DEG/KT/KT) (MB)    (MI)  (FT/S)
HARRISON CRIB              42     330/  7/  8   N/A
BURNHAM HARBOR             42     330/  3/  8   N/A
CALUMET HARBOR             41                   N/A
BURNS HARBOR               42     330/  3/  4 1020.7S
MICHIGAN CITY              40     290/  5/  5   N/A
MICHIGAN CITY 6N           40 46  330/  4/  8   N/A           2/ 5
$$

ILZ025>027-034>036-040-047-049-050-058-095>099-280900-
WEST-CENTRAL ILLINOIS

CITY           SKY/WX    TMP DP  RH WIND       PRES   REMARKS
QUINCY         CLEAR     49  35  58 E5        30.12S
GALESBURG*     CLEAR     39  37  90 SE3       30.13S
MACOMB*        CLEAR     40  37  89 CALM      30.16S
JACKSONVILLE*  CLEAR     41  36  83 E5        30.13R
PITTSFIELD*    CLEAR     43  39  83 CALM      30.13S
$$

ILZ028>032-037-038-041>044-048-051>054-059>061-280900-
CENTRAL ILLINOIS

CITY           SKY/WX    TMP DP  RH WIND       PRES   REMARKS
PONTIAC        CLEAR     37  34  90 NE5       30.14S WCI  33
BLOOMINGTON    CLEAR     39  33  79 NE6       30.13R WCI  35
DECATUR        CLEAR     39  33  79 N3        30.11R
PEORIA         CLEAR     42  35  76 CALM      30.13S
LACON*         CLEAR     37  34  89 CALM      30.13S
LINCOLN*       CLEAR     38  34  86 CALM      30.13R
SPRINGFIELD    CLEAR     40  35  83 CALM      30.13R
TAYLORVILLE    CLEAR     37  34  87 N5        30.11R WCI  34
$$

ILZ033-039-045-046-055>057-062-063-280900-
EAST-CENTRAL ILLINOIS

CITY           SKY/WX    TMP DP  RH WIND       PRES   REMARKS
CHAMPAIGN      CLEAR     38  33  82 N5        30.11R WCI  34
DANVILLE*      CLEAR     35  33  92 N6        30.08S WCI  30
RANTOUL*       CLEAR     40  34  80 N6        30.11S
MATTOON        CLEAR     37  33  85 N5        30.09R WCI  33
PARIS*         CLEAR     38  35  89 CALM      30.11R
$$

ILZ079-100>102-280900-
SOUTHWEST ILLINOIS

CITY           SKY/WX    TMP DP  RH WIND       PRES   REMARKS
ALTON          CLEAR     43  40  88 N5        30.11S
BELLEVILLE     CLEAR     42  40  93 CALM      30.08S
CAHOKIA*       FAIR      43  39  86 CALM      30.10F
SPARTA*        CLEAR     42  39  89 CALM      30.09S
$$

ILZ064>066-069>071-074>076-080>082-084>086-088>090-092>094-280900-
SOUTH-CENTRAL ILLINOIS

CITY           SKY/WX    TMP DP  RH WIND       PRES   REMARKS
CARBONDALE     CLEAR     43  37  79 N5        30.06F
CAIRO*         CLEAR     48  40  72 N8        30.03F
EFFINGHAM*     CLEAR     41  32  71 CALM      30.11S
MARION         CLEAR     41  37  87 CALM      30.07S
MT. VERNON     CLEAR     36  30  80 N5        30.09S WCI  32
CENTRALIA*     CLEAR     37  36  93 CALM      30.10R
SALEM*         CLEAR     46  37  70 N3        30.10S
METROPOLIS*    CLEAR     47  41  80 N3        30.03F
$$

ILZ067-068-072-073-078-083-087-091-280900-
SOUTHEAST ILLINOIS

CITY           SKY/WX    TMP DP  RH WIND       PRES   REMARKS
LAWRENCEVILLE  CLEAR     42  36  79 CALM      30.09R
FLORA*         CLEAR     41  37  84 N6        30.10S
FAIRFIELD*     CLEAR     44  38  79 N5        30.08S
HARRISBURG*    CLEAR     46  38  75 N7        30.07S
ROBINSON*      CLEAR     39  36  87 N3        30.11R
CARMI*         CLEAR     43  35  74 N7        30.07R
$$

ABBREVIATIONS USED IN REMARKS
   TC - TEMPERATURE IN CELSIUS
  WCI - WIND CHILL INDEX
   HX - HEAT INDEX
  VSB - VISIBILITY
$$



USA.gov is the U.S. government's official web portal to all federal, state and local government web resources and services.